Location: Hermaringen
(48.5952°N, 10.2585°E)
Time: 03:26:50
(UTC+00:00)

Altair - Pass Details

Date: 18 February 2026
Orbit: 1502 x 1682 km, 47.2° (Epoch: 7 March)

Event Time Altitude Azimuth Distance (km) Brightness Sun altitude
Rises 07:05:38 0° 271° (W) 4,664 9.4 6.0°
Reaches altitude 10° 07:08:37 10° 271° (W) 3,697 9.0 6.4°
Maximum altitude 07:18:00 83° 186° (S) 1,581 7.8 7.8°
Drops below altitude 10° 07:27:44 10° 100° (E) 3,833 11.3 9.2°
Sets 07:30:54 0° 100° (E) 4,842 11.6 9.7°
